OSCAR 24 [?]

Last updated on Tue Jun 27 2023 01:03:36 GMT+0100 (British Summer Time)

1 15936U 85066B 23177.30722299 .00000130 00000+0 21546-3 0 9997 2 15936 90.1824 76.3431 0170974 109.5860 5.8387 13.35686174846442
UTC large
Height (km)
Speed (km/s)
/
Latitude / Longitude
Inclination (degrees)
Orbital Period (minutes)
Azimuth
Elevation
Range (km)
Doppler Factor

Next 0 passes for location: London (51.5072 / 0.1276)

Sorry there are no passes over London.